Bettles, AK

10:22 PM AKST on December 11, 2017 (GMT -0900)
Bettles

Weather History for PABT - January, 2013

Change the Weather History Date:

Sunday, January 20, 2013

  Actual Average Record
Temperature  
Mean Temperature 3 °F -  
Max Temperature 15 °F -3 °F 41 °F (1961)
Min Temperature -9 °F -17 °F -63 °F (1989)
Degree Days  
Heating Degree Days 62    
Moisture  
Dew Point 1 °F    
Average Humidity 65    
Maximum Humidity 92    
Minimum Humidity 27    
Precipitation  
Precipitation 0.04 in - - ()
Snow  
Snow 0.00 in - - ()
Snow Depth 19.00 in    
Sea Level Pressure  
Sea Level Pressure 30.25 in    
Wind  
Wind Speed 8 mph (ENE)    
Max Wind Speed 13 mph    
Max Gust Speed 26 mph    
Visibility 6 miles    
Events Snow    
Averages and records for this station are not official NWS values.
T = Trace of Precipitation, MM = Missing Value Source: NWS Daily Summary

Daily Weather History Graph

Daily Weather History Graph

Search for Another Location

Airport or City:

Trip Planner

Search our weather history database for the weather conditions in past years. The results will help you decide how hot, cold, wet, or windy it might be!

Date:

Astronomy

Jan. 20, 2013 Rise Set
Actual Time 10:54 AM AKST 3:40 PM AKST
Civil Twilight 9:35 AM AKST 4:59 PM AKST
Nautical Twilight 8:24 AM AKST 6:11 PM AKST
Astronomical Twilight 7:20 AM AKST 7:15 PM AKST
Moon 10:57 AM AKST (1/20) 5:22 AM AKST (1/20)
Length of Visible Light 7h 23m
Length of Day
4h 46m
Waxing Gibbous, 67% of the Moon is Illuminated
Jan 20
Waxing Gibbous
Jan 26
Full
Feb 3
Last Quarter
Feb 9
New
Feb 17
First Quarter

Hourly Weather History & Observations

Time (AKST) Temp. Windchill Dew Point Humidity Pressure Visibility Wind Dir Wind Speed Gust Speed Precip Events Conditions
12:53 AM 7.0 °F -9.1 °F -9.9 °F 46% 30.36 in 10.0 mi NE 12.7 mph 21.9 mph N/A   Partly Cloudy
1:53 AM 8.1 °F -5.3 °F -9.9 °F 44% 30.33 in 10.0 mi NE 9.2 mph 21.9 mph N/A   Scattered Clouds
3:53 AM 10.0 °F -4.5 °F -8.0 °F 44% 30.29 in 10.0 mi ENE 11.5 mph 25.3 mph N/A   Overcast
4:53 AM 10.9 °F 0.2 °F -4.9 °F 49% 30.28 in 10.0 mi Variable 6.9 mph 20.7 mph N/A   Overcast
5:53 AM 12.0 °F -1.3 °F -2.9 °F 51% 30.26 in 10.0 mi ENE 10.4 mph 19.6 mph N/A   Overcast
6:53 AM 12.9 °F -0.9 °F -8.0 °F 39% 30.27 in 10.0 mi ENE 11.5 mph 17.3 mph N/A   Overcast
7:53 AM 13.1 °F 0.1 °F -4.0 °F 47% 30.26 in 10.0 mi East 10.4 mph 20.7 mph N/A   Overcast
8:53 AM 12.9 °F 0.7 °F -4.0 °F 47% 30.26 in 10.0 mi ENE 9.2 mph 26.5 mph N/A Snow Light Snow
9:53 AM 12.9 °F 0.7 °F -2.9 °F 49% 30.25 in 10.0 mi ENE 9.2 mph 16.1 mph N/A Snow Light Snow
10:53 AM 14.0 °F 5.1 °F -4.0 °F 45% 30.26 in 10.0 mi Variable 5.8 mph - N/A Snow Light Snow
11:53 AM 14.0 °F 5.1 °F -2.0 °F 49% 30.27 in 10.0 mi Variable 5.8 mph - N/A Snow Light Snow
12:53 PM 14.0 °F 3.9 °F -2.9 °F 47% 30.26 in 10.0 mi ENE 6.9 mph - N/A Snow Light Snow
1:53 PM 14.0 °F 6.5 °F -2.0 °F 49% 30.26 in 6.0 mi Variable 4.6 mph - N/A Snow Light Snow
2:14 PM 14.0 °F 5.1 °F 3.2 °F 62% 30.19 in 2.0 mi East 5.8 mph - N/A Snow Light Snow
2:42 PM 10.4 °F 4.0 °F 5.0 °F 79% 30.18 in 1.8 mi Variable 3.5 mph - N/A Snow Light Snow
2:53 PM 10.0 °F 3.6 °F 5.0 °F 80% 30.25 in 1.8 mi Variable 3.5 mph - N/A Snow Light Snow
3:20 PM 10.4 °F 4.0 °F 6.8 °F 85% 30.18 in 1.5 mi South 3.5 mph - N/A Snow Light Snow
3:53 PM 9.0 °F - 6.1 °F 88% 30.25 in 1.2 mi Calm Calm - N/A Snow Light Snow
4:53 PM 8.1 °F - 5.0 °F 87% 30.25 in 1.5 mi Calm Calm - N/A Snow Light Snow
5:42 PM 12.2 °F 6.1 °F 6.8 °F 79% 30.18 in 1.8 mi Variable 3.5 mph - N/A Snow Light Snow
5:53 PM 12.0 °F 4.1 °F 8.1 °F 84% 30.24 in 2.5 mi NE 4.6 mph - N/A Snow Light Snow
6:09 PM 10.4 °F - 8.6 °F 92% 30.18 in 3.0 mi Calm Calm - N/A Snow Light Snow
6:53 PM 10.9 °F 4.7 °F 8.1 °F 88% 30.25 in 2.5 mi NNE 3.5 mph - N/A Snow Light Snow
7:53 PM 12.0 °F 2.7 °F 8.1 °F 84% 30.25 in 3.0 mi NNE 5.8 mph - N/A Snow Light Snow
8:53 PM 10.0 °F - 7.0 °F 87% 30.25 in 4.0 mi Calm Calm - N/A Snow Light Snow
9:53 PM 8.1 °F - 6.1 °F 92% 30.25 in 6.0 mi Calm Calm - N/A Snow Light Snow
10:53 PM 7.0 °F 0.1 °F 3.9 °F 87% 30.26 in 8.0 mi WSW 3.5 mph - N/A Snow Light Snow
11:53 PM 3.9 °F - 1.9 °F 91% 30.27 in 9.0 mi Calm Calm - N/A Snow Light Snow